Flag for U.S.A. Weather past 2 weeks in Detroit, Michigan, U.S.A.

Now
29 °F

Clear.


Feels Like: 25 °F
Forecast: 27 / 41 °F
Wind: 3 mph from Southeast

Location: Detroit City Airport

Current Time: Dec 22, 2014 at 3:03:14 AM

Latest Report: Dec 22, 2014 at 1:53 AM


Visibility: 7 mi

Pressure: 30.19 "Hg

Humidity: 75%

Dew point: 22 °F

Location of DetroitLocation

Historic Weather in Detroit — Graph

°F

Detroit temperature yesterday

Maximum temperature yesterday: 37 °F (at 1:53 PM)
Minimum temperature yesterday: 25 °F (at 6:53 AM)
Average temperature yesterday: 31 °F

Past Weeks' High & Low Weather Summary

 TemperatureHumidityPressure
High52 °F (Dec 14, 12:53 PM)93% (Dec 16, 9:53 AM)30.73 "Hg (Dec 16, 9:53 AM)
Low22 °F (Dec 20, 1:53 AM)28% (Dec 11, 12:53 PM)29.67 "Hg (Dec 16, 12:53 PM)
Average36 °F71%30.17 "Hg
* Reported Dec 7 1:53 AM — Dec 22 1:53 AM, Detroit, Weather by CustomWeather, © 2014

Note: Actual official high and low records may vary slightly from our data, if they occured in-between our weather recording intervals... More about our weather records

Advertising

Detroit weather history for previous 24 hours

 ConditionsComfort  
Time TempWeatherWind HumidityBarometerVisibility
1:53 AM
Dec 22
29 °FClear.3 mph75%30.19 "Hg7 mi
12:53 AM29 °FClear.3 mph75%30.20 "Hg6 mi
11:53 PM
Dec 21
29 °FClear.3 mph75%30.22 "Hg5 mi
10:53 PM30 °FClear.No wind72%30.24 "Hg6 mi
9:53 PM29 °FClear.5 mph75%30.25 "Hg6 mi
8:53 PM30 °FClear.3 mph72%30.26 "Hg7 mi
7:53 PM31 °FClear.5 mph69%30.26 "Hg7 mi
6:53 PM31 °FOvercast.3 mph69%30.27 "Hg7 mi
5:53 PM33 °FOvercast.7 mph63%30.27 "Hg8 mi
4:53 PM33 °FOvercast.8 mph63%30.27 "Hg7 mi
3:53 PM34 °FSunny.10 mph61%30.27 "Hg7 mi
2:53 PM37 °FSunny.9 mph57%30.25 "Hg8 mi
1:53 PM37 °FPassing clouds.9 mph57%30.27 "Hg8 mi
12:53 PM36 °FPassing clouds.5 mph59%30.29 "Hg8 mi
11:53 AM35 °FSunny.7 mph61%30.32 "Hg8 mi
10:53 AM34 °FSunny.5 mph67%30.34 "Hg8 mi
9:53 AM32 °FSunny.3 mph69%30.34 "Hg6 mi
8:53 AM28 °FPartly sunny.No wind78%30.33 "Hg5 mi
7:53 AM25 °FPassing clouds.No wind78%30.34 "Hg6 mi
6:53 AM25 °FPassing clouds.No wind78%30.34 "Hg7 mi
5:53 AM27 °FClear.No wind72%30.33 "Hg7 mi
4:53 AM28 °FPassing clouds.No wind72%30.32 "Hg8 mi
3:53 AM30 °FOvercast.No wind64%30.32 "Hg9 mi
Weather by CustomWeather, © 2014

See weather overviewHow to use our weather pages